Weather History for KTYR - January, 2012

Change the Weather History Date:

Friday, January 6, 2012

  Actual Average Record
Temperature  
Mean Temperature 61 °F 46 °F  
Max Temperature 74 °F 56 °F 78 °F (1901)
Min Temperature 48 °F 37 °F 15 °F (1972)
Degree Days  
Heating Degree Days 4 19  
Month to date heating degree days 92 114  
Since 1 July heating degree days 912 1015  
Cooling Degree Days 0 0  
Month to date cooling degree days 0 0  
Year to date cooling degree days 0 0  
Growing Degree Days 10 (Base 50)    
Moisture  
Dew Point 51 °F    
Average Humidity 72    
Maximum Humidity 100    
Minimum Humidity 44    
Precipitation  
Precipitation 0.00 in 0.11 in 5.59 in (1998)
Month to date precipitation 0.00 0.66  
Year to date precipitation 0.00 0.66  
Snow  
Snow 0.00 in - - ()
Month to date snowfall 0.0  
Since 1 July snowfall 0.0  
Snow Depth 0.00 in    
Sea Level Pressure  
Sea Level Pressure 30.00 in    
Wind  
Wind Speed 11 mph (South)    
Max Wind Speed 22 mph    
Max Gust Speed 26 mph    
Visibility 8 miles    
Events Fog    
T = Trace of Precipitation, MM = Missing Value Source: NWS Daily Summary

Daily Weather History Graph

Daily Weather History Graph

Search for Another Location

Airport or City:

Trip Planner

Search our weather history database for the weather conditions in past years. The results will help you decide how hot, cold, wet, or windy it might be!

Date:

Astronomy

Jan. 06, 2012 Rise Set
Actual Time 7:23 AM CST 5:31 PM CST
Civil Twilight 6:56 AM CST 5:57 PM CST
Nautical Twilight 6:26 AM CST 6:28 PM CST
Astronomical Twilight 5:56 AM CST 6:58 PM CST
Moon 3:23 PM CST (1/6) 5:03 AM CST (1/6)
Length of Visible Light 11h 01m
Length of Day
10h 07m
Waxing Gibbous, 93% of the Moon is Illuminated
Jan 6
Waxing Gibbous
Jan 9
Full
Jan 16
Last Quarter
Jan 23
New
Jan 30
First Quarter

Hourly Weather History & Observations

Time (CST) Temp. Dew Point Humidity Pressure Visibility Wind Dir Wind Speed Gust Speed Precip Events Conditions
12:53 AM 48.9 °F 42.1 °F 77% 30.07 in 10.0 mi South 8.1 mph - N/A   Clear
1:53 AM 48.2 °F 42.8 °F 82% 30.06 in 10.0 mi South 8.1 mph - N/A   Clear
2:53 AM 48.0 °F 44.1 °F 86% 30.04 in 10.0 mi South 8.1 mph - N/A   Clear
3:53 AM 48.0 °F 45.0 °F 89% 30.04 in 10.0 mi South 6.9 mph - N/A   Clear
4:53 AM 48.9 °F 46.0 °F 90% 30.02 in 10.0 mi South 9.2 mph - N/A   Clear
5:53 AM 50.0 °F 48.2 °F 94% 30.04 in 9.0 mi South 8.1 mph - N/A   Clear
6:21 AM 51.8 °F 48.2 °F 88% 30.04 in 8.0 mi South 6.9 mph - N/A   Scattered Clouds
6:32 AM 51.8 °F 51.8 °F 100% 30.04 in 8.0 mi South 6.9 mph - N/A   Mostly Cloudy
6:53 AM 53.1 °F 51.1 °F 93% 30.04 in 6.0 mi South 8.1 mph - N/A   Overcast
7:17 AM 53.6 °F 51.8 °F 94% 30.04 in 1.8 mi South 8.1 mph - N/A   Overcast
7:27 AM 53.6 °F 53.6 °F 100% 30.04 in 0.5 mi South 8.1 mph - N/A Fog Fog
7:39 AM 53.6 °F 53.6 °F 100% 30.04 in 0.2 mi South 6.9 mph - N/A Fog Fog
7:53 AM 54.0 °F 54.0 °F 100% 30.04 in 0.2 mi South 5.8 mph - N/A Fog Fog
8:44 AM 55.4 °F 55.4 °F 100% 30.05 in 0.8 mi South 9.2 mph - N/A   Mist
8:53 AM 55.9 °F 55.0 °F 97% 30.04 in 1.5 mi South 8.1 mph - N/A   Overcast
9:07 AM 57.2 °F 55.4 °F 94% 30.05 in 3.0 mi South 9.2 mph - N/A   Overcast
9:40 AM 57.2 °F 57.2 °F 100% 30.06 in 8.0 mi SSW 10.4 mph - N/A   Overcast
9:53 AM 57.9 °F 57.0 °F 97% 30.05 in 10.0 mi SSW 11.5 mph - N/A   Overcast
10:11 AM 59.0 °F 55.4 °F 88% 30.06 in 10.0 mi SSW 12.7 mph - N/A   Mostly Cloudy
10:53 AM 63.0 °F 55.0 °F 75% 30.04 in 10.0 mi SSW 16.1 mph - N/A   Mostly Cloudy
11:00 AM 62.6 °F 55.4 °F 77% 30.05 in 10.0 mi SSW 17.3 mph 23.0 mph N/A   Partly Cloudy
11:53 AM 66.0 °F 55.0 °F 68% 30.00 in 10.0 mi South 15.0 mph 24.2 mph N/A   Clear
12:53 PM 69.1 °F 54.0 °F 58% 29.95 in 10.0 mi SSW 13.8 mph - N/A   Clear
1:53 PM 72.0 °F 53.1 °F 51% 29.92 in 10.0 mi SSW 12.7 mph - N/A   Clear
2:53 PM 73.4 °F 51.8 °F 47% 29.91 in 10.0 mi SSW 13.8 mph 25.3 mph N/A   Clear
3:53 PM 73.0 °F 50.0 °F 44% 29.90 in 10.0 mi South 18.4 mph 24.2 mph N/A   Clear
4:53 PM 71.1 °F 50.0 °F 47% 29.91 in 10.0 mi SSW 15.0 mph - N/A   Clear
5:53 PM 66.9 °F 50.0 °F 54% 29.90 in 10.0 mi South 13.8 mph - N/A   Clear
6:53 PM 63.0 °F 50.0 °F 63% 29.92 in 10.0 mi South 10.4 mph - N/A   Clear
7:53 PM 63.0 °F 48.9 °F 60% 29.91 in 10.0 mi South 9.2 mph - N/A   Clear
8:53 PM 60.1 °F 50.0 °F 69% 29.93 in 10.0 mi South 8.1 mph - N/A   Clear
9:53 PM 61.0 °F 50.0 °F 67% 29.94 in 10.0 mi South 10.4 mph - N/A   Clear
10:53 PM 59.0 °F 51.1 °F 75% 29.95 in 10.0 mi South 9.2 mph - N/A   Clear
11:53 PM 57.9 °F 51.1 °F 78% 29.94 in 10.0 mi South 8.1 mph - N/A   Clear